Vorticity
9 9 10 10 7 9 14 10 16 10 13 24 13 9 6 3 2 15 77 8 1 -3 8 -1 7 2 3 -8 -6 1 5 6 -4 7 23 16 12 11 12 4 3 -1 1 3
7 14 13 11 8 10 10 13 30 23 14 7 18 22 13 7 3 3 12 81 1 -6 -3 -9 0 10 2 8 5 7 4 8 9 6 5 8 9 -2 7 6 11 7 7 11
9 12 12 9 15 13 14 10 2 0 6 4 2 1 26 16 5 17 4 9 19 42 21 20 32 10 0 7 7 13 4 2 5 1 7 16 8 8 10 18 15 12 12 13
7 6 5 6 14 22 17 10 6 7 6 9 -2 11 17 17 11 8 6 4 5 14 10 8 2 12 8 3 2 5 10 17 18 15 7 3 15 17 13 11 12 13 12 14
11 7 12 4 38 8 -10 9 7 7 10 1 -1 3 14 11 5 10 7 2 9 12 7 7 3 4 9 7 11 14 8 1 6 16 16 15 11 10 10 12 12 11 11 11
5 9 6 7 28 2 3 -3 6 5 19 10 -0 5 13 19 16 11 15 10 9 6 10 16 10 6 10 10 8 9 11 17 15 17 12 9 6 9 9 8 8 12 12 13
5 3 6 13 -1 18 22 -0 6 16 -8 0 11 8 4 9 19 8 3 -5 8 10 20 24 16 15 10 14 13 7 11 14 14 9 6 8 10 8 7 9 11 12 14 12
1 1 8 13 7 -1 11 2 3 19 43 30 16 1 11 4 22 19 22 12 13 11 9 10 14 9 9 8 14 14 17 8 8 4 7 7 8 9 10 10 10 13 11 8
5 2 3 11 20 0 1 -6 7 -2 4 10 12 9 9 12 4 8 4 5 9 13 12 13 11 12 15 14 14 8 8 6 3 5 7 8 9 9 9 11 9 3 4 6
9 7 -1 11 7 7 12 10 11 4 8 5 7 4 6 6 7 6 7 9 8 8 9 12 10 10 10 9 8 7 5 6 7 8 9 10 10 9 9 11 9 8 8 12
4 3 10 1 6 1 5 3 10 3 6 2 12 2 3 3 14 10 11 13 12 10 9 9 9 10 9 7 5 6 8 9 9 11 12 12 11 11 10 9 10 12 13 13
10 7 8 10 0 7 5 6 5 3 3 11 6 5 7 4 12 12 15 11 11 10 7 6 7 7 7 7 9 10 9 10 12 10 10 11 11 12 13 14 12 11 8 6
14 7 3 4 9 2 6 5 5 6 7 6 5 8 5 5 8 15 13 11 8 9 9 8 7 8 9 10 10 9 10 9 10 9 8 9 12 16 14 10 8 6 6 8
2 2 1 2 7 12 10 7 5 4 5 5 6 7 5 8 8 13 11 12 10 9 7 8 10 10 10 10 11 8 7 7 6 9 8 8 10 14 10 8 6 7 9 9
9 6 2 3 4 6 14 10 7 5 6 7 8 6 5 6 9 9 9 11 11 9 9 9 9 10 9 9 6 7 9 10 10 11 10 10 10 10 8 8 9 9 9 8
15 3 18 3 7 7 4 7 6 5 6 4 8 6 4 6 8 10 11 12 13 11 9 9 10 10 7 7 7 8 9 12 12 10 10 10 8 8 9 8 7 8 8 7
6 8 13 17 13 11 14 5 3 4 8 5 5 9 6 1 13 17 11 12 11 8 7 9 9 7 8 7 8 9 9 8 10 11 11 10 8 8 6 6 7 8 8 7
1 10 12 -6 13 20 0 9 10 10 4 4 5 5 2 4 6 11 9 10 8 9 9 9 10 8 7 8 8 8 8 9 9 11 10 9 8 7 6 8 8 7 6 6
3 6 5 12 5 12 15 7 9 7 8 13 10 4 7 3 4 13 9 9 11 9 7 8 7 8 9 8 8 7 8 8 11 11 9 7 7 7 7 8 7 7 7 7
12 0 3 4 6 3 2 11 10 7 15 7 12 11 3 3 4 11 14 12 8 7 8 8 9 8 8 7 8 7 6 7 8 9 9 8 8 8 7 7 7 6 4 5
8 9 11 1 3 16 -4 12 7 10 15 6 12 7 10 2 2 1 12 10 8 7 7 8 8 7 7 6 7 7 6 5 6 6 6 6 6 6 5 4 3 3 2 3
22 12 5 6 5 12 22 -4 6 11 9 20 12 15 6 8 3 3 6 9 9 6 6 7 8 7 6 5 5 6 8 5 5 4 4 3 3 3 2 2 2 2 3 4
17 14 12 13 4 0 4 23 8 5 7 20 17 14 14 7 7 7 6 8 9 7 7 8 10 7 7 9 9 8 6 7 5 4 4 3 3 3 3 3 4 5 5 6
21 26 7 4 5 6 13 2 15 16 10 9 18 7 13 12 7 10 9 7 8 8 6 8 8 7 8 8 8 6 7 8 6 6 6 5 4 4 4 4 5 5 6 7
7 4 27 21 13 9 1 5 10 11 13 18 2 18 10 11 10 6 3 4 5 9 8 7 6 5 7 6 8 7 10 9 6 7 7 6 5 4 5 4 3 1 3 6
1 7 -4 17 24 24 19 0 -4 12 5 14 8 7 10 12 10 12 9 8 4 4 9 7 6 7 4 9 8 7 11 7 6 7 7 6 6 5 5 5 5 4 2 2
Height
5733 5735 5739 5744 5746 5749 5752 5753 5755 5760 5767 5769 5772 5777 5780 5782 5786 5788 5790 5795 5802 5803 5805 5808 5811 5815 5819 5822 5822 5824 5825 5827 5826 5825 5827 5828 5829 5828 5827 5825 5822 5823 5820 5819
5728 5732 5735 5738 5741 5743 5745 5748 5748 5752 5754 5761 5766 5770 5774 5777 5781 5782 5785 5789 5794 5796 5798 5800 5804 5809 5813 5814 5817 5818 5820 5819 5820 5820 5820 5819 5819 5818 5818 5816 5814 5812 5810 5808
5725 5729 5729 5732 5735 5737 5738 5740 5743 5746 5754 5754 5758 5762 5768 5772 5774 5775 5779 5784 5786 5788 5793 5795 5799 5802 5805 5808 5811 5812 5813 5813 5811 5812 5812 5811 5810 5809 5808 5808 5805 5803 5801 5799
5720 5721 5723 5728 5730 5733 5735 5739 5741 5746 5746 5747 5755 5759 5761 5765 5769 5770 5772 5777 5782 5785 5788 5790 5793 5796 5799 5802 5804 5804 5805 5806 5805 5804 5804 5804 5802 5801 5800 5799 5797 5795 5793 5790
5717 5716 5719 5723 5729 5731 5734 5735 5738 5742 5744 5745 5745 5749 5755 5756 5757 5763 5767 5771 5777 5779 5782 5785 5788 5791 5793 5795 5797 5798 5798 5798 5798 5797 5797 5797 5795 5795 5793 5791 5789 5787 5784 5782
5709 5712 5715 5719 5724 5728 5731 5732 5735 5738 5739 5738 5740 5746 5746 5751 5756 5758 5761 5764 5769 5773 5775 5779 5781 5785 5787 5789 5790 5789 5790 5790 5790 5791 5790 5790 5789 5787 5785 5783 5781 5779 5776 5774
5703 5705 5710 5715 5719 5722 5724 5727 5729 5732 5732 5735 5740 5740 5744 5746 5750 5755 5758 5760 5763 5765 5768 5771 5774 5777 5778 5779 5781 5782 5783 5783 5785 5785 5784 5783 5782 5780 5779 5777 5774 5772 5770 5768
5696 5701 5706 5710 5713 5717 5719 5721 5725 5727 5730 5736 5737 5733 5741 5738 5746 5749 5753 5756 5757 5758 5759 5761 5765 5769 5771 5774 5775 5776 5777 5778 5779 5779 5779 5777 5776 5775 5773 5771 5769 5767 5766 5764
5690 5695 5701 5706 5711 5713 5717 5719 5725 5726 5728 5729 5733 5732 5733 5737 5740 5743 5747 5751 5753 5755 5757 5759 5761 5764 5766 5767 5768 5771 5772 5772 5773 5773 5772 5772 5771 5770 5768 5766 5764 5763 5760 5758
5685 5690 5694 5701 5704 5705 5710 5719 5718 5720 5723 5724 5727 5729 5730 5733 5735 5739 5742 5745 5747 5749 5750 5753 5755 5757 5759 5763 5765 5766 5767 5768 5768 5768 5767 5766 5765 5764 5762 5760 5758 5756 5754 5752
5676 5681 5687 5693 5693 5701 5706 5708 5711 5716 5719 5721 5725 5726 5729 5732 5732 5735 5738 5739 5742 5744 5747 5749 5752 5755 5757 5758 5759 5761 5762 5762 5762 5761 5760 5760 5758 5756 5755 5753 5752 5750 5749 5748
5669 5671 5675 5686 5693 5696 5697 5703 5705 5710 5715 5718 5721 5725 5728 5730 5731 5733 5735 5736 5739 5741 5744 5746 5749 5751 5752 5753 5755 5756 5756 5756 5756 5755 5755 5754 5752 5751 5749 5749 5748 5746 5745 5744
5661 5661 5667 5675 5680 5684 5686 5699 5702 5707 5710 5713 5717 5723 5724 5726 5727 5729 5731 5733 5735 5738 5741 5743 5744 5745 5747 5749 5750 5751 5751 5751 5751 5751 5750 5749 5748 5747 5745 5744 5744 5743 5741 5739
5652 5653 5658 5668 5678 5686 5689 5694 5694 5697 5703 5710 5713 5716 5718 5722 5723 5725 5727 5729 5731 5733 5736 5738 5739 5741 5743 5744 5746 5747 5747 5748 5747 5747 5746 5745 5744 5742 5741 5740 5739 5738 5736 5733
5643 5645 5651 5661 5668 5675 5681 5686 5689 5690 5701 5701 5710 5709 5712 5717 5718 5719 5721 5724 5727 5728 5731 5733 5735 5737 5739 5740 5742 5743 5743 5743 5743 5742 5741 5740 5739 5738 5737 5736 5735 5733 5731 5728
5634 5640 5647 5652 5660 5668 5672 5675 5680 5684 5690 5695 5700 5704 5707 5710 5711 5715 5718 5720 5722 5724 5726 5729 5731 5733 5735 5736 5738 5738 5739 5738 5738 5737 5737 5736 5736 5735 5734 5732 5730 5728 5725 5722
5627 5634 5640 5644 5653 5658 5659 5663 5671 5675 5685 5690 5691 5703 5699 5703 5707 5710 5712 5714 5717 5719 5722 5725 5727 5729 5731 5732 5734 5734 5734 5734 5734 5733 5733 5732 5732 5730 5729 5727 5725 5723 5720 5717
5618 5624 5631 5635 5643 5644 5651 5659 5666 5671 5676 5681 5686 5692 5693 5698 5701 5703 5706 5709 5712 5716 5718 5721 5723 5725 5727 5728 5729 5730 5730 5730 5730 5729 5729 5728 5727 5726 5725 5723 5721 5718 5716 5712
5609 5614 5619 5625 5632 5637 5641 5652 5658 5660 5671 5675 5681 5685 5684 5690 5693 5697 5701 5705 5708 5710 5712 5715 5718 5720 5722 5724 5725 5726 5726 5726 5726 5726 5725 5724 5723 5722 5720 5718 5717 5714 5711 5707
5600 5605 5612 5618 5622 5624 5635 5645 5651 5654 5655 5666 5671 5677 5680 5681 5684 5694 5696 5699 5701 5704 5707 5710 5713 5715 5717 5719 5720 5721 5722 5722 5722 5722 5721 5720 5719 5717 5716 5714 5712 5709 5706 5702
5588 5593 5599 5606 5611 5617 5625 5635 5641 5644 5652 5660 5662 5668 5673 5672 5682 5686 5688 5692 5695 5697 5701 5704 5707 5710 5712 5714 5715 5716 5717 5718 5718 5718 5717 5716 5714 5713 5711 5709 5707 5704 5701 5696
5579 5586 5590 5599 5602 5608 5618 5630 5631 5638 5643 5652 5655 5659 5664 5668 5673 5676 5682 5685 5689 5692 5695 5699 5702 5704 5706 5708 5709 5711 5712 5713 5713 5713 5712 5711 5710 5709 5706 5704 5701 5698 5694 5689
5568 5576 5584 5591 5597 5600 5615 5621 5624 5630 5637 5643 5647 5652 5656 5662 5666 5670 5674 5677 5681 5685 5688 5692 5695 5697 5700 5702 5703 5705 5705 5707 5707 5707 5707 5705 5704 5702 5700 5698 5695 5691 5687 5683
5558 5566 5571 5577 5584 5592 5604 5608 5613 5620 5628 5633 5639 5643 5646 5651 5657 5660 5666 5670 5673 5677 5681 5685 5688 5691 5693 5694 5696 5697 5699 5700 5699 5700 5700 5699 5697 5695 5693 5691 5688 5684 5680 5675
5549 5558 5563 5570 5577 5582 5591 5596 5602 5610 5616 5623 5629 5633 5637 5642 5648 5652 5656 5662 5666 5669 5673 5677 5681 5683 5686 5687 5688 5689 5692 5692 5691 5693 5692 5691 5689 5688 5686 5683 5680 5676 5672 5667
5540 5550 5556 5562 5567 5568 5576 5584 5590 5600 5606 5612 5619 5624 5627 5632 5637 5641 5646 5652 5657 5660 5665 5669 5673 5676 5678 5679 5680 5682 5685 5684 5683 5685 5684 5683 5681 5680 5678 5675 5672 5668 5664 5659